Regional Weather Roundup
Issued by NWS Little Rock, AR

Home | Current Version | Previous Version | Graphics & Text | Print | Product List | Glossary On
Versions: 1 2 3 4 5 6 7 8 9 10 11 12 13 14 15 16 17 18 19 20 21 22 23 24 25 26 27 28
000
ASUS44 KLZK 242305
RWRLZK

WEATHER ROUNDUP FOR ARKANSAS
NATIONAL WEATHER SERVICE LITTLE ROCK AR
600 PM CDT THU APR 24 2014

NOTE: "FAIR" INDICATES FEW OR NO CLOUDS BELOW 12,000 FEET WITH NO
SIGNIFICANT WEATHER AND/OR OBSTRUCTIONS TO VISIBILITY.

ARZ001-003-010-029-250000-
NORTHWEST ARKANSAS

CITY           SKY/WX    TMP DP  RH WIND       PRES   REMARKS
FAYETTEVILLE   CLOUDY    59  56  89 W16G22    29.77R
FORT SMITH     MOSUNNY   67  59  75 W8        29.77R
HARRISON       CLOUDY    66  55  67 W8        29.68F
BENTONVILLE    CLOUDY    57  54  88 NW14G23   29.76R
ROGERS         LGT RAIN  57  55  93 W16G26    29.75R
SILOAM SPGS    CLOUDY    61  50  67 NW18      29.78R
HIGHFILL       CLOUDY    58  58 100 W13G26    29.75R
SPRINGDALE     CLOUDY    57  55  94 W17G29    29.77R
$$

ARZ004-005-016-250000-
NORTH CENTRAL ARKANSAS

CITY           SKY/WX    TMP DP  RH WIND       PRES   REMARKS
BATESVILLE     CLOUDY    64  59  82 SW16G28   29.70R THUNDER
FLIPPIN        MOSUNNY   66  54  63 S12G21    29.62F
MTN HOME       MOSUNNY   64  60  87 S10       29.62F
$$

ARZ040-041-250000-
WEST CENTRAL ARKANSAS

CITY           SKY/WX    TMP DP  RH WIND       PRES   REMARKS
MENA           PTSUNNY   68  68 100 CALM      29.79R
MOUNT IDA      LGT RAIN  60  58  92 VRB7      29.75S FOG
$$

ARZ009-017-025-026-028-250000-
NORTHEAST ARKANSAS

CITY           SKY/WX    TMP DP  RH WIND       PRES   REMARKS
CORNING        LGT RAIN  66  64  94 SW14      29.69S
JONESBORO      CLOUDY    67  62  84 W3        29.68S
NEWPORT        CLOUDY    65  63  93 SW7       29.72R
WALNUT RIDGE   CLOUDY    64  61  88 SW5       29.67F
BLYTHEVILLE    LGT RAIN  72  59  63 SE15G26   29.67F
$$

ARZ022-023-033-042-044-250000-
CENTRAL ARKANSAS

CITY           SKY/WX    TMP DP  RH WIND       PRES   REMARKS
LITTLE ROCK    PTSUNNY   70  66  87 SW12      29.74S
N LITTLE ROCK  PTSUNNY   68  67  96 SW8G21    29.74S
JACKSONVILLE   PTSUNNY   70  68  94 W15       29.75R
SEARCY         LGT RAIN  67  67 100 S9        29.72F FOG
HOT SPRINGS    TSTM      64  57  77 W10G32    29.76R
RUSSELLVILLE   CLOUDY    66  64  93 S3        29.69F FOG
CLINTON        LGT RAIN  66  63  88 CALM      29.71F
$$

ARZ036-250000-
EAST ARKANSAS

CITY           SKY/WX    TMP DP  RH WIND       PRES   REMARKS
WEST MEMPHIS   LGT RAIN  72  61  68 SE26G39   29.63F
$$

ARZ050-053-066-070-073-250000-
SOUTHWEST ARKANSAS

CITY           SKY/WX    TMP DP  RH WIND       PRES   REMARKS
ARKADELPHIA    FAIR      76  68  76 S7        29.72S
CAMDEN         SUNNY     73  66  78 MISG      29.75R
TEXARKANA      MOSUNNY   81  59  47 W21G28    29.74R
EL DORADO      MOSUNNY   72  68  87 S10       29.77S
DE QUEEN       LGT RAIN  80  57  45 W18G32    29.71R
$$

ARZ056-057-069-250000-
SOUTHEAST ARKANSAS

CITY           SKY/WX    TMP DP  RH WIND       PRES   REMARKS
PINE BLUFF     CLOUDY    71  68  90 SW10      29.75R
STUTTGART      CLOUDY    66  64  94 SW9       29.74F THUNDER
MONTICELLO     LGT RAIN  67  65  93 SW6       29.77R FOG

$$





USA.gov is the U.S. government's official web portal to all federal, state and local government web resources and services.